Effective Sunday, March 17, 2024, the National Weather Service National Data Buoy Center will discontinue its Dial-A-Buoy Interactive Voice Response system. For more information, see Service Change Notice 24-06 (PDF).

Station LJAC1 - 9410230 - La Jolla, CA Image indicating link to RSS feed of recent meteorological observations for station LJAC1


Conditions at LJAC1 as of
(4:00 am PST)
1200 GMT on 03/03/2024:
     

Click on the graph icon in the table below to see a time series plot of the last five days of that observation.

5-day plot - Wind Direction Wind Direction (WDIR): NW ( 310 deg true )
5-day plot - Wind Speed Wind Speed (WSPD): 12.0 kts
5-day plot - Wind Gust Wind Gust (GST): 14.0 kts
5-day plot - Atmospheric Pressure Atmospheric Pressure (PRES):30.03 in
5-day plot - Pressure Tendency Pressure Tendency (PTDY):-0.03 in ( Falling )
5-day plot - Air Temperature Air Temperature (ATMP): 57.6 °F
5-day plot - Water Temperature Water Temperature (WTMP): 60.8 °F
5-day plot - Wind Speed at 10 Meters Wind Speed at 10 meters (WSPD10M): 11.7 kts
5-day plot - Wind Speed at 20 Meters Wind Speed at 20 meters (WSPD20M): 13.6 kts
5-day plot -  Wind Speed, Wind Gust and Atmospheric Pressure Combined plot of Wind Speed, Gust, and Air Pressure
NOS Water Level Observation Network Water Level
Previous observations
TIME
(PST)
5-day plot - Wind Direction
WDIR
 
5-day plot - Wind Speed
WSPD
kts
5-day plot - Wind Gust
GST
kts
5-day plot - Wave Height
WVHT
ft
5-day plot - Dominant Wave Period
DPD
sec
5-day plot - Average Wave Period
APD
sec
5-day plot - Mean Wave Direction
MWD
 
5-day plot - Atmospheric Pressure
PRES
in
5-day plot - Pressure Tendency
PTDY
in
5-day plot - Air Temperature
ATMP
°F
5-day plot - Water Temperature
WTMP
°F
5-day plot - Dew Point
DEWP
°F
5-day plot - Salinity
SAL
psu
5-day plot - Visibility
VIS
nmi
5-day plot - Tide (above MLLW)
TIDE
ft
2024-03-03 03:54 am NW 11.1 12.0----30.03- 57.7 60.8----
2024-03-03 03:48 am NW 11.1 14.0----30.03-- 60.8----
2024-03-03 03:42 am NW 12.0 13.0----30.03- 57.6 60.8----
2024-03-03 03:36 am NW 11.1 14.0----30.03- 57.6 60.8----
2024-03-03 03:30 am NW 12.0 14.0----30.03- 57.6 60.8----
2024-03-03 03:24 amWNW 12.0 14.0----30.03- 57.6 60.8----
2024-03-03 03:18 am NW 9.9 12.0----30.03- 57.4 60.8----
2024-03-03 03:12 am NW 9.9 12.0----30.03- 57.4 60.8----
2024-03-03 03:06 am NW 11.1 13.0----30.03- 57.6 60.8----
2024-03-03 03:00 amWNW 8.9 12.0----30.03-0.02- 60.8----
2024-03-03 02:54 amWNW 11.1 13.0----30.03-- 60.8----
2024-03-03 02:48 am NW 12.0 14.0----30.03- 57.6 60.8----
2024-03-03 02:42 am NW 12.0 15.0----30.04- 57.6 60.8----
2024-03-03 02:36 am NW 11.1 14.0----30.04- 57.6 60.8----
2024-03-03 02:30 amWNW 11.1 14.0----30.04- 57.6 60.8----
2024-03-03 02:24 amWNW 9.9 14.0----30.04- 57.6 60.8----
2024-03-03 02:18 amWNW 13.0 15.0----30.04- 57.6 60.8----
2024-03-03 02:12 amWNW 9.9 15.0----30.04- 57.7 60.8----
2024-03-03 02:06 amWNW 13.0 15.0----30.05- 57.6 60.8----
2024-03-03 02:00 am NW 11.1 14.0----30.05-0.01 57.9 60.8----
2024-03-03 01:54 amWNW 11.1 12.0----30.05- 58.3 60.8----
2024-03-03 01:48 amWNW 11.1 12.0----30.05- 58.3 60.8----
2024-03-03 01:42 amWNW 9.9 12.0----30.05- 58.1 60.8----
2024-03-03 01:36 amWNW 9.9 13.0----30.05- 57.9 60.8----
2024-03-03 01:30 amWNW 11.1 13.0----30.05- 58.1 60.8----
2024-03-03 01:24 am W 11.1 13.0----30.05- 58.3 60.8----
2024-03-03 01:18 amWNW 9.9 12.0----30.05- 58.1 60.8----
2024-03-03 01:12 am W 9.9 12.0----30.06- 58.1 61.0----
2024-03-03 01:06 amWNW 9.9 12.0----30.05- 58.3 60.8----
2024-03-03 01:00 am W 11.1 13.0----30.05+0.00 58.1 60.8----
2024-03-03 12:54 am W 12.0 13.0----30.06- 58.3 60.8----
2024-03-03 12:48 am W 9.9 12.0----30.06- 58.3 60.8----
2024-03-03 12:42 am W 9.9 12.0----30.06- 58.5 60.8----
2024-03-03 12:36 amWNW 11.1 13.0----30.06- 58.3 60.8----
2024-03-03 12:30 amWNW 11.1 12.0----30.06- 58.1 61.0----
2024-03-03 12:24 am W 8.9 9.9----30.06- 58.3 61.0----
2024-03-03 12:18 amWNW 8.9 9.9----30.06- 58.3 61.0----
2024-03-03 12:12 am W 8.0 8.9----30.06- 58.3 61.0----
2024-03-03 12:06 am W 7.0 8.9----30.06- 58.1 61.0----
2024-03-03 12:00 amWNW 6.0 8.0----30.06+0.00 58.1 60.8----
2024-03-02 11:54 pmWNW 5.1 7.0----30.06- 57.9 61.0----
2024-03-02 11:48 pmWNW 6.0 7.0----30.06-- 61.0----
2024-03-02 11:42 pm W 6.0 8.0----30.06- 57.9 61.0----
2024-03-02 11:36 pm W 5.1 7.0----30.06- 58.1 61.0----
2024-03-02 11:30 pmWNW 5.1 6.0----30.05- 57.9 61.0----
2024-03-02 11:24 pmWNW 5.1 7.0----30.05- 57.9 61.0----
2024-03-02 11:18 pm NW 6.0 8.0----30.05- 57.7 61.0----
2024-03-02 11:12 pm NW 8.0 8.9----30.05- 57.9 61.0----
2024-03-02 11:06 pm NW 7.0 8.9----30.06- 58.1 61.0----
2024-03-02 11:00 pm NW 7.0 8.9----30.06+0.01 58.1 61.0----
2024-03-02 10:54 pmNNW 7.0 8.9----30.05- 57.9 61.0----
2024-03-02 10:48 pm NW 8.0 11.1----30.05-- 61.0----
2024-03-02 10:42 pmNNW 9.9 13.0----30.06- 57.9 61.0----
2024-03-02 10:36 pmNNW 12.0 14.0----30.06- 58.5 61.0----
2024-03-02 10:30 pm NW 8.9 12.0----30.06- 58.8 61.0----
2024-03-02 10:24 pm NW 11.1 13.0----30.06- 58.5 61.0----
2024-03-02 10:18 pm NW 11.1 13.0----30.06- 58.1 61.0----
2024-03-02 10:12 pm NW 12.0 14.0----30.06- 58.3 61.0----
2024-03-02 10:06 pm NW 8.0 12.0----30.06- 57.9 61.0----
2024-03-02 10:00 pm NW 12.0 14.0----30.06+0.02 57.7 61.0----
2024-03-02 09:54 pmWNW 5.1 6.0----30.06- 58.5 61.0----
2024-03-02 09:48 pmWNW 5.1 6.0----30.06- 58.1 61.0----
2024-03-02 09:42 pmNNW 5.1 7.0----30.06- 57.6 61.0----
2024-03-02 09:36 pmNNW 7.0 9.9----30.06- 57.6 61.0----
2024-03-02 09:30 pmNNW 9.9 13.0----30.06- 57.4 61.0----
2024-03-02 09:24 pmNNW 9.9 14.0----30.05- 57.9 61.0----
2024-03-02 09:18 pmWNW 7.0 9.9----30.06- 58.5 61.0----
2024-03-02 09:12 pmWNW 5.1 7.0----30.06- 58.5 61.0----
2024-03-02 09:06 pmWNW 4.1 6.0----30.06- 58.3 61.0----
2024-03-02 09:00 pm NW 4.1 6.0----30.06+0.02 57.9 61.0----
2024-03-02 08:54 pm NW 5.1 8.0----30.05- 57.6 61.0----
2024-03-02 08:48 pmWNW 8.0 12.0----30.05- 57.7 61.0----
2024-03-02 08:42 pmWNW 8.0 8.9----30.05- 58.8 61.0----
2024-03-02 08:36 pm W 8.9 9.9----30.05- 58.5 61.0----
2024-03-02 08:30 pm W 6.0 8.0----30.05- 58.8 61.0----
2024-03-02 08:24 pm W 6.0 7.0----30.04- 58.6 61.0----
2024-03-02 08:18 pmWNW 4.1 6.0----30.04- 58.6 61.0----
2024-03-02 08:12 pmWNW 5.1 6.0----30.04- 58.6 61.0----
2024-03-02 08:06 pmWNW 5.1 7.0----30.04- 58.6 61.0----
2024-03-02 08:00 pmWNW 6.0 7.0----30.04+0.02 58.5 61.0----
2024-03-02 07:54 pmWNW 5.1 6.0----30.04- 58.5 61.0----
2024-03-02 07:48 pm W 6.0 7.0----30.04- 58.3 61.0----
2024-03-02 07:42 pm W 5.1 6.0----30.04- 58.3 61.0----
2024-03-02 07:36 pm W 5.1 5.1----30.04- 58.3 61.0----
2024-03-02 07:30 pm W 4.1 6.0----30.03- 58.3 61.0----
2024-03-02 07:24 pmWNW 5.1 6.0----30.03- 58.1 61.0----
2024-03-02 07:18 pm W 5.1 7.0----30.03-- 61.0----
2024-03-02 07:12 pm W 6.0 8.9----30.03- 58.1 61.0----
2024-03-02 07:06 pm W 7.0 8.0----30.03- 58.3 61.0----
2024-03-02 07:00 pmWSW 7.0 8.0----30.03+0.01 58.1 61.0----
2024-03-02 06:54 pmWSW 5.1 7.0----30.03- 57.9 61.0----
2024-03-02 06:48 pm W 5.1 7.0----30.03- 57.7 61.0----
2024-03-02 06:42 pm W 5.1 6.0----30.03- 57.4 61.2----
2024-03-02 06:36 pm W 4.1 5.1----30.03- 57.2 61.2----
2024-03-02 06:30 pm W 4.1 6.0----30.03- 57.2 61.2----
2024-03-02 06:24 pm W 5.1 7.0----30.03- 57.0 61.2----
2024-03-02 06:18 pm W 6.0 7.0----30.03-------
2024-03-02 06:12 pmWSW 6.0 8.0----30.03- 56.8 61.2----
2024-03-02 06:06 pmWSW 7.0 8.9----30.03- 56.7 61.2----
2024-03-02 06:00 pm W 7.0 8.9----30.03+0.01 56.8 61.2----
2024-03-02 05:54 pm W 9.9 13.0----30.04- 56.7 61.2----
2024-03-02 05:48 pm W 11.1 13.0----30.04-------
2024-03-02 05:42 pmWNW 12.0 14.0----30.04- 57.2 61.3----
2024-03-02 05:36 pmWNW 11.1 12.0----30.03- 57.6 61.3----
2024-03-02 05:30 pmWNW 8.9 12.0----30.03- 57.4 61.3----
2024-03-02 05:24 pmWNW 9.9 13.0----30.03- 57.6 61.3----
2024-03-02 05:18 pmWNW 12.0 15.9----30.03- 57.4 61.3----
2024-03-02 05:12 pm W 9.9 12.0----30.03- 58.1 61.3----
2024-03-02 05:06 pm SW 7.0 8.0----30.02- 59.4 61.3----
2024-03-02 05:00 pmWSW 6.0 8.9----30.02-0.02 59.2 61.3----
2024-03-02 04:54 pmSSW 8.0 12.0----30.02- 58.5 61.3----
2024-03-02 04:48 pm SW 12.0 15.0----30.03- 59.0 61.5----
2024-03-02 04:42 pm SW 15.0 18.1----30.03- 59.4 61.3----
2024-03-02 04:36 pm SW 11.1 13.0----30.02- 60.1 61.3----
2024-03-02 04:30 pmSSW 9.9 12.0----30.02- 60.3 61.3----
2024-03-02 04:24 pmSSW 12.0 15.0----30.02- 60.4 61.3----
2024-03-02 04:18 pm SW 8.9 11.1----30.02- 60.3 61.3----
2024-03-02 04:12 pm SW 9.9 13.0----30.03- 60.3 61.3----
2024-03-02 04:06 pm SW 9.9 13.0----30.03- 60.4 61.5----
2024-03-02 04:00 pm SW 11.1 13.0----30.03-0.03 60.6 61.3----
2024-03-02 03:54 pmSSW 9.9 13.0----30.03- 60.4 61.3----
2024-03-02 03:48 pmSSW 9.9 14.0----30.03-- 61.5----
2024-03-02 03:42 pm SW 9.9 15.9----30.03-- 61.5----
2024-03-02 03:36 pmSSW 11.1 13.0----30.03-- 61.5----
2024-03-02 03:30 pm SW 8.9 11.1----30.03- 60.6 61.3----
2024-03-02 03:24 pm SW 8.9 12.0----30.03- 60.8 61.3----
2024-03-02 03:18 pm SW 8.9 13.0----30.03-- 61.3----
2024-03-02 03:12 pm SW 11.1 13.0----30.03-- 61.5----
2024-03-02 03:00 pm SW 9.9 12.0----30.03- 60.3 61.5----
2024-03-02 02:54 pmSSW 8.9 13.0----30.03- 60.4 61.3----
2024-03-02 02:48 pmSSW 12.0 14.0----30.03- 60.6 61.3----
2024-03-02 02:42 pmSSW 11.1 14.0----30.03- 60.8 61.3----
2024-03-02 02:36 pm SW 8.9 13.0----30.03- 60.6 61.3----
2024-03-02 02:30 pmSSW 11.1 14.0----30.03-- 61.3----
2024-03-02 02:24 pmSSW 9.9 13.0----30.03-- 61.3----
2024-03-02 02:18 pm SW 8.0 9.9----30.04-- 61.5----
2024-03-02 02:12 pm SW 8.0 12.0----30.04-- 61.5----
2024-03-02 02:06 pm SW 9.9 12.0----30.04-- 61.5----
2024-03-02 02:00 pm SW 8.0 12.0----30.04-0.04 60.4 61.5----
2024-03-02 01:54 pm SW 8.9 12.0----30.04- 60.3 61.3----
2024-03-02 01:48 pm SW 8.0 11.1----30.04- 60.4 61.3----
2024-03-02 01:42 pm SW 8.9 12.0----30.05- 60.3 61.2----
2024-03-02 01:36 pmSSW 11.1 13.0----30.05- 59.9 61.2----
2024-03-02 01:30 pmSSW 8.9 12.0----30.05- 60.1-----
2024-03-02 01:24 pm SW 9.9 11.1----30.05- 60.3-----
2024-03-02 01:18 pm SW 9.9 13.0----30.05- 59.9 61.2----
2024-03-02 01:12 pm SW 12.0 14.0----30.05- 59.5 61.2----
2024-03-02 01:06 pm SW 11.1 13.0----30.05- 59.7 61.2----
2024-03-02 01:00 pm SW 12.0 15.0----30.06-0.02 59.4 61.2----
2024-03-02 12:54 pm SW 13.0 15.0----30.06- 59.0 61.2----
2024-03-02 12:48 pmWSW 13.0 14.0----30.06-- 61.2----
2024-03-02 12:42 pm SW 12.0 13.0----30.06-- 61.2----
2024-03-02 12:36 pm SW 11.1 17.1----30.06-- 61.2----
2024-03-02 12:30 pm SW 15.9 20.0----30.06- 58.8 61.2----
2024-03-02 12:24 pm SW 12.0 14.0----30.06- 60.3 61.2----
2024-03-02 12:18 pm SW 11.1 13.0----30.06- 60.4 61.2----
2024-03-02 12:12 pm SW 9.9 11.1----30.07- 60.8 61.2----
2024-03-02 12:06 pm SW 9.9 12.0----30.07- 60.8 61.2----
2024-03-02 12:00 pm--------- 61.0-----
2024-03-02 11:54 am--------- 60.8-----
2024-03-02 11:48 am SW 11.1 12.0----30.08- 60.6 61.0----
2024-03-02 11:42 am SW 11.1 12.0----30.08- 60.8 61.0----
2024-03-02 11:36 am SW 12.0 12.0----30.08- 60.8 61.0----
2024-03-02 11:30 am SW 12.0 13.0----30.08- 60.6 61.0----
2024-03-02 11:24 am SW 12.0 12.0----30.08- 60.6 61.0----
2024-03-02 11:18 am SW 11.1 12.0----30.08-- 61.2----
2024-03-02 11:12 am SW 11.1 12.0----30.08- 60.6 61.2----
2024-03-02 11:06 am SW 11.1 12.0----30.08- 60.8 61.0----
2024-03-02 11:00 am SW 12.0 13.0----30.08+0.01 60.6 61.0----
2024-03-02 10:54 am SW 11.1 12.0----30.09- 60.6 61.0----
2024-03-02 10:48 am SW 11.1 12.0----30.09- 60.6 61.0----
2024-03-02 10:42 amWSW 11.1 12.0----30.09- 60.4 61.0----
2024-03-02 10:36 am SW 12.0 13.0----30.09- 59.9 60.8----
2024-03-02 10:30 am SW 11.1 14.0----30.09- 59.7 60.8----
2024-03-02 10:24 amSSW 12.0 14.0----30.09- 60.3 60.8----
2024-03-02 10:18 amSSW 9.9 14.0----30.09- 60.3 60.8----
2024-03-02 10:12 amSSW 12.0 14.0----30.09- 59.9 60.8----
2024-03-02 10:06 am SW 11.1 13.0----30.08- 59.9 60.8----
2024-03-02 10:00 amSSW 12.0 15.0----30.08+0.03 59.9 60.8----
2024-03-02 09:54 am S 11.1 13.0----30.08- 59.7 60.8----
2024-03-02 09:48 am S 8.9 12.0----30.07- 59.7 61.0----
2024-03-02 09:42 amSSW 8.9 12.0----30.07- 59.7 61.0----
2024-03-02 09:36 am S 9.9 13.0----30.07- 59.7 61.0----
2024-03-02 09:30 am S 9.9 13.0----30.07- 59.7 61.0----
2024-03-02 09:24 am S 11.1 14.0----30.07- 59.5 61.0----
2024-03-02 09:18 am S 8.9 13.0----30.07- 59.5 61.0----
2024-03-02 09:12 am S 9.9 13.0----30.07- 59.5 61.0----
2024-03-02 09:06 am S 11.1 13.0----30.07- 59.2 61.0----
2024-03-02 09:00 am S 12.0 14.0----30.06+0.03 59.2 61.0----
2024-03-02 08:54 am S 9.9 15.9----30.06- 59.5 61.0----
2024-03-02 08:48 amSSW 12.0 15.0----30.07- 59.5 61.0----
2024-03-02 08:42 am S 12.0 15.0----30.07- 59.5 61.0----
2024-03-02 08:36 am S 11.1 14.0----30.07- 59.4 61.0----
2024-03-02 08:30 am S 8.9 12.0----30.06- 59.4 60.8----
2024-03-02 08:24 amSSW 9.9 13.0----30.06- 59.4 60.8----
2024-03-02 08:18 amSSW 9.9 12.0----30.06- 59.0 60.8----
2024-03-02 08:12 amSSW 8.0 11.1----30.06- 59.0 60.8----
2024-03-02 08:06 amSSW 9.9 12.0----30.07- 58.6 60.8----
2024-03-02 08:00 amSSW 11.1 12.0----30.07+0.04 58.3 60.8----
2024-03-02 07:54 am S 9.9 12.0----30.06- 58.3 60.8----
2024-03-02 07:48 am S 11.1 14.0----30.06- 57.9 60.6----
2024-03-02 07:42 am S 13.0 17.1----30.06- 58.3 60.8----
2024-03-02 07:36 amSSW 13.0 15.9----30.06- 58.1 60.8----
2024-03-02 07:30 amSSW 13.0 15.0----30.06-- 60.8----
2024-03-02 07:24 amSSW 13.0 18.1----30.06-- 60.8----
2024-03-02 07:18 am S 12.0 15.0----30.06- 57.4 60.8----
2024-03-02 07:12 am S 13.0 17.1----30.06- 57.2 60.8----
2024-03-02 07:06 am S 13.0 17.1----30.06- 57.2 60.8----
2024-03-02 07:00 am S 14.0 15.9----30.05+0.01 57.2 60.8----
2024-03-02 06:54 am S 9.9 13.0----30.04- 57.4 60.8----
2024-03-02 06:48 am S 9.9 14.0----30.04- 57.2 60.8----
2024-03-02 06:42 am S 9.9 12.0----30.04- 57.2 60.8----
2024-03-02 06:36 am S 11.1 14.0----30.04- 57.2 60.8----
2024-03-02 06:30 am S 9.9 17.1----30.03- 57.4 60.8----
2024-03-02 06:24 am S 12.0 15.9----30.03- 57.6 60.8----
2024-03-02 06:18 am S 11.1 13.0----30.03-- 60.8----
2024-03-02 06:12 amSSW 13.0 15.0----30.03- 57.4 60.8----
2024-03-02 06:06 am S 9.9 15.0----30.03- 57.2 61.0----
2024-03-02 06:00 am S 13.0 18.1----30.03-0.01 57.4 61.0----
2024-03-02 05:54 am S 11.1 15.0----30.03- 57.6 61.0----
2024-03-02 05:48 am S 14.0 17.1----30.03- 57.4 61.0----
2024-03-02 05:42 am S 9.9 14.0----30.03- 57.4 61.0----
2024-03-02 05:36 amSSW 9.9 13.0----30.04- 57.4 61.0----
2024-03-02 05:30 am S 11.1 14.0----30.03- 57.4 61.0----
2024-03-02 05:24 am S 9.9 14.0----30.03- 57.4 61.0----
2024-03-02 05:18 am S 9.9 12.0----30.03- 57.4 61.0----
2024-03-02 05:12 am S 9.9 13.0----30.03- 57.6 61.0----
2024-03-02 05:06 am S 9.9 13.0----30.03- 57.6 61.0----
2024-03-02 05:00 am S 11.1 14.0----30.03-0.04 57.7 61.0----
2024-03-02 04:54 am S 8.9 12.0----30.03- 57.6 61.0----
2024-03-02 04:48 am S 8.0 11.1----30.03-- 61.0----
2024-03-02 04:42 am S 8.9 12.0----30.03-- 61.0----
2024-03-02 04:36 am S 8.0 13.0----30.03-- 61.0----
2024-03-02 04:30 am S 9.9 12.0----30.03- 58.1 61.0----
2024-03-02 04:24 am S 9.9 14.0----30.03- 58.1 61.0----
2024-03-02 04:18 am S 8.9 12.0----30.03- 58.5 61.0----
2024-03-02 04:12 am S 8.0 12.0----30.03- 58.3 61.0----
2024-03-02 04:06 am S 8.9 9.9----30.03- 58.5 61.0----
2024-03-02 04:00 am S 9.9 12.0----30.03-0.06 58.5 61.0----
2024-03-02 03:54 am S 9.9 11.1----30.03- 58.5 61.0----